Regional Weather Roundup
Issued by NWS

Home | Current Version | Previous Version | Text Only | Print | Product List | Glossary Off
Versions: 1 2 3 4 5 6 7 8 9 10 11 12 13 14 15 16 17 18 19 20 21 22 23 24 25 26 27 28 29 30 31 32 33 34 35 36 37 38 39 40 41 42 43 44 45 46 47 48 49 50

000
ASUS45 KSLC 281810
RWRUT

UTAH REGIONAL WEATHER ROUNDUP
NATIONAL WEATHER SERVICE SALT LAKE CITY UT
1200 PM MDT THU MAY 28 2015

UTZ001>011-023>025-281900-

NORTHERN UTAH

CITY           SKY/WX    TMP DP  RH WIND       PRES   REMARKS
BRIGHAM CITY   MOSUNNY   63  43  46 SW10      30.13S
HILL AFB       MOSUNNY   64  44  49 S6        30.13S
LOGAN          MOSUNNY   61  45  55 W3        30.11F
OGDEN          MOSUNNY   64  46  52 CALM      30.12S
PROVO AIRPORT  MOSUNNY   61  46  59 E13       30.15S
SALT LAKE CITY MOSUNNY   66  45  46 W7        30.11S
VERNAL         MOSUNNY   59  45  59 SW5       30.14R
WENDOVER       MOSUNNY   64  48  55 E7        30.13S
HEBER CITY     PTSUNNY   55  45  67 CALM      30.17F
WEST JORDAN    MOSUNNY   64  48  55 SE12      30.14R

$$

UTZ012>022-026-027-281900-

SOUTHERN/CENTRAL UTAH

CITY           SKY/WX    TMP DP  RH WIND       PRES   REMARKS
BLANDING       SUNNY     70  36  29 SW3       30.22S
BRYCE CANYON   MOSUNNY   65  34  31 W12       30.25R
CEDAR CITY     MOSUNNY   71  36  27 W6        30.14S
DELTA          MOSUNNY   67  42  40 N5        30.14S
HANKSVILLE     PTSUNNY   70  39  32 CALM      30.11F
MILFORD        SUNNY     68  50  52 E7        30.13S
MOAB/CYNLANDS  SUNNY     70  42  36 CALM      30.09S
PRICE          MOSUNNY   63  43  48 SW8       30.14F
ST GEORGE      CLEAR     79  41  25 CALM      30.04F
KANAB          SUNNY     75  34  22 SW9       30.15F

$$

REGIONAL REPORTS     COLORADO/ARIZONA

CITY           SKY/WX    TMP DP  RH WIND       PRES   REMARKS
CRAIG, CO      MOSUNNY   63  41  44 W9        30.15F
GRAND JUNCTION MOSUNNY   68  46  45 CALM      30.11F
RIFLE          MOSUNNY   63  45  51 CALM      30.13F
MONTROSE       SUNNY     67  42  40 N9        30.16S
CORTEZ         SUNNY     73  34  23 W9        30.14F
PAGE, AZ       SUNNY     76  42  29 VRB7      30.08F
GRAND CANYON   SUNNY     71  26  18 VRB7      30.23R
KINGMAN        SUNNY     83  24  11 SW9       30.05S
FLAGSTAFF      SUNNY     69  27  20 VRB6      30.24S

$$

REGIONAL REPORTS    NEVADA/IDAHO/WYOMING

CITY           SKY/WX    TMP DP  RH WIND       PRES   REMARKS
LAS VEGAS, NV  SUNNY     88  31  13 CALM      29.93S
ELY            PTSUNNY   64  41  42 NW8       30.18S
ELKO           SUNNY     67  44  43 S6        30.14S
POCATELLO, ID  MOSUNNY   60  49  66 W8        30.14S
BURLEY         SUNNY     63  46  54 VRB3      30.12S
EVANSTON, WY   PTSUNNY   54  40  59 SW21G28   30.18F
ROCK SPRINGS   CLOUDY    53  41  63 W17G24    30.17F
KEMMERER       LGT RAIN  45  37  76 NW7       30.20S

$$


USA.gov is the U.S. government's official web portal to all federal, state and local government web resources and services.